Погода в Верхнеусинском

Россия / Красноярский край     52°14′21″N   93°01′29″E
темп.,
°C
ветер,
м/с
пор.,
м/с
влажн.,
%
обл.,
%
осадки,
мм/ч
давл.,
гПа
погр.,
м
24 января, пн
пн2401:00−27ссз0110097 0.1 10449
04:00−27с01100100 0.1 104411
07:00−26ссз01100100 0.1 104313
10:00−24ссз0097100 0.1 104391
13:00−19вюв0092100 0.1 1040172
16:00−17ююв0192100 0.0 103993
19:00−22юз019995 0.0 10429
22:00−25з0110069 0.0 104510
25 января, вт
вт2501:00−25зсз0110094 0.1 10469
04:00−27ссз0110095 0.1 10469
07:00−28ссз1110096 0.1 10489
10:00−26ссв0098100 0.1 104780
13:00−20св119496 0.1 1043254
16:00−18св119286 0.0 1040247
19:00−25с0110082 0.1 104412
22:00−27вюв0199100 0.0 104510
26 января, ср
ср2601:00−25зсз0199100 0.1 104524
04:00−27ссз119993 0.0 104510
07:00−26с0199100 0.1 104614
10:00−24св0197100 0.0 104595
13:00−20св1191100 0.0 1042300
16:00−18св128897 0.0 1040261
19:00−27с019980 0.0 104511
22:00−29зсз019972 0.0 10479
27 января, чт
чт2701:00−30зсз0110088 0.0 10489
04:00−29с00100100 0.0 104713
07:00−29ссз01100100 0.0 10489
10:00−26с0097100 0.0 104789
13:00−21св0190100 0.0 1044218
16:00−20ссв1189100 0.0 1042158
19:00−24с0197100 0.0 104510
22:00−25ссв1198100 0.0 10469
28 января, пт
пт2801:00−25ссв1199100 0.0 104610
04:00−28зсз0110076 0.0 10489
07:00−31з0110074 0.0 10509
10:00−28ююз009951 0.0 104953
13:00−21всв009020 0.0 1044189
16:00−19в018831 0.0 1042136
19:00−27сз01997 0.0 10469
22:00−30сз0110071 0.0 10499